Retour au catalogue

COSMOS 2339

ActifNavigationPO
NORAD 24727·PAYLOAD·🇷🇺 Russia

Lancé Feb 14, 1997 depuis Plesetsk Cosmodrome

Loading…

Prochains Passages (prochaines 24 heures)

TLE

FraisSource: Space-Track

Époque: Sep 14, 2026, 18:46 UTC

1 24727U 97006C   26257.78218380  .00000021  00000-0  55555-4 0  9995
2 24727  82.6071 198.3624 0001320  98.1287 275.6392 12.62380954362883

Suivez COSMOS 2339 en temps réel avec AllMySat

Download on the App Store